Location: Cedar Falls
(42.5280°N, 92.4450°W)
Time: 20:42:17
(UTC-05:00)

NOSS 3-1 (C) - Visible Passes

Search period start: 21 June 2018 00:00
Search period end: 01 July 2018 00:00
Orbit: 804 x 1404 km, 63.4° (Epoch: 13 June)

Date Brightness Start Highest point End Pass type
(mag) Time Alt. Az. Time Alt. Az. Time Alt. Az.
21 Jun 6.4 01:38:30 10° NNW 01:43:31 20° NNE 01:48:57 10° ENE visible
21 Jun 4.8 03:28:46 10° NNW 03:36:07 55° NE 03:44:19 10° SE visible
21 Jun 6.6 23:00:01 10° NW 23:03:12 14° N 23:06:33 10° NNE visible
22 Jun 6.6 00:53:16 10° NNW 00:57:24 16° NNE 01:01:49 10° NE visible
22 Jun 5.4 02:43:37 10° NNW 02:50:30 39° NE 02:58:09 10° ESE visible
22 Jun 4.2 04:34:17 10° NW 04:41:52 62° WSW 04:50:13 10° SSE visible
22 Jun 6.4 22:13:16 10° NW 22:17:01 16° NNW 22:21:05 10° NNE visible
23 Jun 6.6 00:07:50 10° NNW 00:11:11 14° N 00:14:43 10° NE visible
23 Jun 5.8 01:58:29 10° NNW 02:04:45 29° NE 02:11:39 10° E visible
23 Jun 4.1 03:48:55 10° NW 03:56:34 88° SW 04:05:06 10° SSE visible
23 Jun 6.3 21:26:34 10° WNW 21:30:59 20° NNW 21:35:49 10° NNE visible
23 Jun 6.6 23:22:02 10° NNW 23:24:54 13° N 23:27:56 10° NNE visible
24 Jun 6.1 01:13:21 10° NNW 01:18:50 22° NNE 01:24:50 10° ENE visible
24 Jun 4.5 03:03:39 10° NNW 03:11:09 66° NE 03:19:34 10° SE visible
24 Jun 4.7 04:55:05 10° NW 05:01:51 33° WSW 05:09:10 10° S visible
24 Jun 6.5 22:35:42 10° NNW 22:38:38 13° N 22:41:44 10° NNE visible
25 Jun 6.3 00:28:10 10° NNW 00:32:47 18° NNE 00:37:46 10° ENE visible
25 Jun 5.0 02:18:28 10° NNW 02:25:37 47° NE 02:33:36 10° ESE visible
25 Jun 4.3 04:09:21 10° NW 04:16:45 50° WSW 04:24:51 10° S visible
25 Jun 6.4 21:49:00 10° NW 21:52:25 15° NNW 21:56:04 10° NNE visible
25 Jun 6.4 23:42:52 10° NNW 23:46:38 15° NNE 23:50:37 10° NE visible
26 Jun 5.5 01:33:20 10° NNW 01:39:57 34° NE 01:47:17 10° ESE visible
26 Jun 4.0 03:23:52 10° NW 03:31:30 73° WSW 03:39:59 10° SSE visible
26 Jun 6.4 22:57:18 10° NNW 23:00:22 13° N 23:03:37 10° NNE visible
27 Jun 5.8 00:48:12 10° NNW 00:54:07 26° NNE 01:00:38 10° E visible
27 Jun 4.2 02:38:33 10° NW 02:46:09 79° NE 02:54:40 10° SE visible
27 Jun 5.0 04:30:25 10° WNW 04:36:39 26° WSW 04:43:18 10° SSW visible
27 Jun 6.4 22:11:15 10° NNW 22:14:05 13° N 22:17:04 10° NNE visible
28 Jun 6.1 00:03:03 10° NNW 00:08:09 20° NNE 00:13:41 10° ENE visible
28 Jun 4.6 01:53:19 10° NNW 02:00:42 56° NE 02:08:56 10° SE visible
28 Jun 4.5 03:44:28 10° NW 03:51:36 40° WSW 03:59:20 10° S visible
28 Jun 6.3 21:24:43 10° NW 21:27:50 14° N 21:31:09 10° NNE visible
28 Jun 6.3 23:17:50 10° NNW 23:22:03 16° NNE 23:26:34 10° NE visible
29 Jun 5.1 01:08:10 10° NNW 01:15:06 41° NE 01:22:49 10° ESE visible
29 Jun 4.1 02:58:53 10° NW 03:06:25 60° WSW 03:13:58 13° SSE visible
29 Jun 5.7 04:53:42 10° W 04:56:14 12° WSW 04:58:49 10° WSW visible
29 Jun 6.3 22:32:26 10° NNW 22:35:50 14° N 22:39:26 10° NE visible
30 Jun 5.5 00:23:01 10° NNW 00:29:21 30° NE 00:36:20 10° E visible
30 Jun 4.0 02:13:28 10° NW 02:21:08 86° WSW 02:27:54 18° SSE visible
30 Jun 5.3 04:05:57 10° WNW 04:11:23 20° WSW 04:15:10 15° SW visible
30 Jun 6.3 21:46:39 10° NNW 21:49:33 13° N 21:52:37 10° NNE visible
30 Jun 5.9 23:37:54 10° NNW 23:43:28 23° NNE 23:49:32 10° E visible
